Skip Navigation Links weather.gov 
NOAA logo-Select to go to the NOAA homepage NDBC Title GraphicClick to go to NDBC home page   Select to go to the NWS homepage
Home About Us Contact Us
 
 
    
    Station List

 Data Access
    Mobile Access
    Classic Maps
         Recent
         DART®
    Obs Search
    Ship Obs Report
    BuoyCAMs
    TAO
    DODS
    OceanSITES
    HF Radar
    OSMC
    Dial-A-Buoy
    RSS Feeds Image indicating link to RSS feed access page
    Web Widget
    Email Access
    Web Data Guide
    Maintenance Schedule
    Station Status Report

 Program Info
    TAO
    DART®
    IOOS®

 Publications
    NDBC PEA
    NDBC FONSI
    NDBC DQC Handbook

 FAQ
 Visitor Information
 
USA.gov is the U.S. government's official web portal to all federal, state and local government web resources and services.

The NDBC website is now available only via HTTPS. Please update your bookmarks and/or links to use https://www.ndbc.noaa.gov/.

Station NKLA2 - Nikolski White Alice Image indicating link to RSS feed of recent meteorological observations for station NKLA2

Owned and maintained by Marine Exchange of Alaska
Fixed Structure Weather Station
52.972 N 168.855 W (52°58'20" N 168°51'19" W)

Search And Rescue (SAR) Data

Meteorological Observations from Nearby Stations and Ships Image indicating link to RSS feed of recent meteorological observations near station NKLA2

Large icon indicates selected station.
yellow diamond Stations with recent data
red diamond Stations with no data in last 8 hours
     (24 hours for tsunami stations)


Conditions at NKLA2 as of
(12:12 pm AKDT)
2012 GMT on 08/14/2018:

Note: This report is more than two hours old
     

Click on the graph icon in the table below to see a time series plot of the last five days of that observation.

5-day plot - Wind Direction Wind Direction (WDIR): WSW ( 250 deg true )
5-day plot - Wind Speed Wind Speed (WSPD): 15.9 kts
5-day plot - Wind Gust Wind Gust (GST): 22.9 kts
5-day plot - Atmospheric Pressure Atmospheric Pressure (PRES): 30.18 in
5-day plot - Air Temperature Air Temperature (ATMP): 43.5 °F
5-day plot - Dew Point Dew Point (DEWP): 40.5 °F
5-day plot - Wind Chill Wind Chill (CHILL): 35.4 °F
5-day plot - Wind Speed at 10 Meters Wind Speed at 10 meters (WSPD10M): 17.5 kts
5-day plot - Wind Speed at 10 Meters Wind Speed at 20 meters (WSPD20M): 19.4 kts
5-day plot - Wind Speed, Wind Gust and Atmospheric Pressure Combined plot of Wind Speed, Gust, and Air Pressure
Previous observations
5-day plot - Wind Direction 5-day plot - Wind Speed 5-day plot - Wind Gust 5-day plot - Wave Height 5-day plot - Dominant Wave Period 5-day plot - Average Period 5-day plot - Mean Wave Direction 5-day plot - Atmospheric Pressure 5-day plot - Pressure Tendency 5-day plot - Air Temperature 5-day plot - Water Temperature 5-day plot - Dew Point 5-day plot - Salinity 5-day plot - Visibility 5-day plot - Tide (above MLLW)
MM DD TIME
(AKDT)
WDIR WSPD
kts
GST
kts
WVHT
ft
DPD
sec
APD
sec
MWD PRES
in
PTDY
in
ATMP
°F
WTMP
°F
DEWP
°F
SAL
psu
VIS
nmi
TIDE
ft
081412:02 pmWSW 15.9 22.0----30.18- 43.3- 40.1---
081411:52 amWSW 14.0 22.0----30.18- 43.3- 39.7---
081411:42 amWSW 15.9 22.9----30.19- 44.1- 40.1---
081411:32 amWSW 19.0 25.1----30.18- 43.7- 40.1---
081411:22 amWSW 18.1 22.9----30.18- 43.3- 39.9---
081411:12 amWSW 18.1 24.1----30.18- 43.7- 39.9---
081411:02 amWSW 18.1 25.1----30.19- 44.1- 40.1---
081410:52 amWSW 17.1 24.1----30.19- 43.7- 40.1---
081410:42 amWSW 18.1 24.1----30.19- 42.8- 39.4---
081410:32 amWSW 18.1 22.0----30.19- 42.8- 39.0---
081410:22 amWSW 17.1 22.9----30.19- 42.4- 39.2---
081410:12 amWSW 9.9 21.0----30.19- 42.4- 39.6---
081410:02 am W 13.0 29.9----30.19- 42.3- 39.6---
0814 9:52 amWSW 18.1 28.9----30.19- 42.3- 39.2---
0814 9:42 amWSW 22.0 34.0----30.19- 43.7- 40.1---
0814 9:32 amWSW 22.0 29.9----30.19- 43.9- 39.9---
0814 9:22 amWSW 19.0 27.0----30.19- 43.9- 39.7---
0814 9:12 amWSW 18.1 24.1----30.19- 43.5- 39.2---
0814 9:02 am W 15.0 20.0----30.20- 42.6- 38.5---
0814 8:52 am W 12.0 17.1----30.20- 42.8- 38.7---
0814 8:42 am W 13.0 18.1----30.20- 42.3- 38.5---
0814 8:32 am W 13.0 15.9----30.20- 41.9- 38.3---
0814 8:22 amWSW 14.0 17.1----30.20- 42.3- 38.5---
0814 8:12 am W 11.1 17.1----30.20- 42.6- 38.5---
0814 8:02 am W 9.9 17.1----30.21- 41.9- 38.3---
0814 7:52 am W 8.9 12.0----30.21- 42.1- 38.3---
0814 7:42 amWNW 9.9 12.0----30.21- 42.3- 38.5---
0814 7:32 amWNW 8.9 13.0----30.22- 42.3- 38.7---
0814 7:22 am W 9.9 15.0----30.21- 42.1- 38.7---
0814 7:12 am W 8.9 17.1----30.22- 42.3- 39.0---
0814 7:02 am W 9.9 15.0----30.22- 41.0- 38.7---
0814 6:52 amWSW 12.0 17.1----30.23- 41.2- 38.5---
0814 6:42 am W 9.9 17.1----30.23- 42.3- 38.7---
0814 6:32 am W 11.1 13.0----30.23- 42.1- 39.0---
0814 6:22 am W 8.0 14.0----30.24- 40.8- 38.3---
0814 6:12 am W 8.9 13.0----30.24- 41.0- 38.7---
0814 6:02 am W 7.0 12.0----30.24- 41.2- 38.7---
0814 5:52 am W 7.0 15.9----30.25- 41.4- 38.8---
0814 5:42 amWSW 14.0 25.1----30.25- 41.5- 38.8---
0814 5:32 amWSW 15.9 26.0----30.24- 41.5- 38.7---
0814 5:22 amWSW 15.9 22.9----30.25- 41.4- 38.7---
0814 5:12 amWSW 11.1 21.0----30.25- 41.5- 38.7---
0814 5:02 amWSW 17.1 24.1----30.25- 41.5- 38.7---
0814 4:52 amWSW 12.0 22.9----30.25- 42.1- 38.8---
0814 4:42 amWSW 15.0 22.9----30.25- 41.5- 38.8---
0814 4:32 amWSW 13.0 18.1----30.26- 42.1- 38.8---
0814 4:22 amWSW 15.0 21.0----30.26- 42.6- 39.0---
0814 4:12 amWSW 15.9 19.0----30.26- 42.6- 39.2---
0814 4:02 amWSW 17.1 22.0----30.26- 42.8- 39.2---
0814 3:52 amWSW 15.0 22.9----30.27- 42.8- 39.4---
0814 3:42 amWSW 20.0 25.1----30.26- 43.7- 39.4---
0814 3:32 amWSW 22.9 29.9----30.26- 43.7- 39.2---
0814 3:22 amWSW 24.1 32.1----30.26- 43.0- 39.2---
0814 3:12 amWSW 22.0 28.9----30.26- 43.0- 39.4---
0814 3:02 amWSW 19.0 26.0----30.27- 43.3- 39.6---
0814 2:52 amWSW 18.1 24.1----30.27- 43.7- 39.9---
0814 2:42 amWSW 15.9 19.0----30.27- 43.2- 39.9---
0814 2:32 amWSW 17.1 24.1----30.27- 43.0- 39.9---
0814 2:22 amWSW 15.0 25.1----30.27- 43.0- 40.1---
0814 2:12 amWSW 11.1 26.0----30.27- 43.0- 40.3---
0814 2:02 amWSW 17.1 29.9----30.27- 42.8- 39.9---
0814 1:52 amWSW 14.0 27.0----30.27- 43.0- 40.1---
0814 1:42 amWSW 12.0 21.0----30.27- 43.2- 40.6---
0814 1:32 am W 7.0 19.0----30.27- 42.8- 40.6---
0814 1:22 amWSW 8.0 19.0----30.27- 42.8- 40.6---
0814 1:12 amWSW 17.1 27.0----30.27- 42.4- 40.5---
0814 1:02 amWSW 14.0 25.1----30.27- 42.4- 40.6---
081412:52 amWSW 15.0 29.9----30.27- 42.3- 40.5---
081412:42 amWSW 22.9 34.0----30.27- 42.1- 40.1---
081412:32 amWSW 24.1 29.9----30.27- 42.3- 40.3---
081412:22 amWSW 22.9 29.9----30.27- 42.4- 40.5---
081412:12 amWSW 22.0 27.0----30.27- 42.3- 40.3---
081412:02 amWSW 21.0 26.0----30.27- 42.3- 40.3---
081311:52 pmWSW 18.1 29.9----30.27- 42.4- 40.3---
081311:42 pmWSW 18.1 27.0----30.27- 42.6- 40.6---
081311:32 pmWSW 26.0 34.0----30.27- 42.6- 40.6---
081311:22 pmWSW 27.0 35.0----30.26- 42.6- 40.6---
081311:12 pmWSW 24.1 28.9----30.26- 42.6- 40.5---
081311:02 pmWSW 21.0 28.9----30.27- 42.8- 40.6---
081310:52 pmWSW 25.1 35.9----30.26- 42.8- 40.8---
081310:42 pmWSW 28.9 38.1----30.26- 42.8- 40.8---
081310:32 pmWSW 29.9 38.1----30.25- 42.3- 40.3---
081310:22 pmWSW 28.0 36.9----30.25- 42.3- 40.3---
081310:12 pmWSW 31.1 38.1----30.25- 42.4- 40.3---
081310:02 pmWSW 28.0 39.0----30.25- 43.0- 40.8---
0813 9:52 pmWSW 28.0 36.9----30.25- 43.2- 41.2---
0813 9:42 pmWSW 21.0 35.0----30.26- 43.0- 40.8---
0813 9:32 pmWSW 22.9 35.0----30.25- 43.2- 41.0---
0813 9:22 pmWSW 27.0 36.9----30.25- 43.0- 40.8---
0813 9:12 pmWSW 32.1 41.0----30.24- 43.0- 41.0---
0813 9:02 pmWSW 31.1 42.0----30.24- 42.6- 40.6---
0813 8:52 pmWSW 27.0 35.0----30.24- 42.4- 40.3---
0813 8:42 pmWSW 28.9 35.9----30.24- 42.6- 40.5---
0813 8:32 pmWSW 28.0 36.9----30.24- 42.4- 40.3---
0813 8:22 pmWSW 31.1 38.1----30.24- 42.6- 40.5---
0813 8:12 pmWSW 32.1 40.0----30.24- 43.2- 41.0---
0813 8:02 pmWSW 33.0 42.0----30.24- 42.8- 40.6---
0813 7:52 pmWSW 28.0 41.0----30.24- 42.8- 40.5---
0813 7:42 pmWSW 25.1 34.0----30.24- 43.3- 40.8---
0813 7:32 pmWSW 22.0 36.9----30.24- 43.7- 41.5---
0813 7:22 pmWSW 27.0 38.1----30.24- 43.3- 41.2---
0813 7:12 pmWSW 28.0 41.0----30.24- 43.5- 41.2---
0813 7:02 pmWSW 29.9 41.0----30.24- 43.7- 41.4---
0813 6:52 pmWSW 28.9 39.0----30.24- 43.5- 41.2---
0813 6:42 pmWSW 29.9 38.1----30.24- 43.0- 40.6---
0813 6:32 pmWSW 26.0 35.0----30.24- 43.3- 40.8---
0813 6:22 pmWSW 27.0 39.0----30.24- 43.2- 40.8---
0813 6:12 pmWSW 27.0 38.1----30.24- 42.8- 40.1---
0813 6:02 pmWSW 26.0 33.0----30.24- 43.3- 40.5---
0813 5:52 pmWSW 20.0 34.0----30.25- 44.8- 42.1---
0813 5:42 pmWSW 21.0 35.9----30.25- 44.2- 41.7---
0813 5:32 pmWSW 24.1 39.0----30.25- 44.4- 41.7---
0813 5:22 pmWSW 20.0 35.0----30.25- 43.9- 41.2---
0813 5:12 pmWSW 24.1 35.0----30.25- 43.7- 41.0---
0813 5:02 pmWSW 26.0 34.0----30.24- 43.5- 40.8---
0813 4:52 pmWSW 24.1 31.1----30.25- 43.3- 40.5---
0813 4:42 pmWSW 22.9 32.1----30.25- 43.5- 40.6---
0813 4:32 pmWSW 24.1 33.0----30.25- 43.9- 41.2---
0813 4:22 pmWSW 17.1 26.0----30.25- 43.7- 41.2---
0813 4:12 pmWSW 19.0 24.1----30.25- 43.3- 40.6---
0813 3:52 pmWSW 21.0 29.9----30.24- 43.3- 40.5---
0813 3:42 pmWSW 22.9 28.9----30.24- 43.5- 40.5---
0813 3:32 pmWSW 22.9 28.9----30.24- 43.9- 40.6---
0813 3:22 pmWSW 22.0 29.9----30.24- 44.2- 40.8---
0813 3:12 pmWSW 22.9 28.0----30.24- 43.9- 41.0---
0813 3:02 pmWSW 27.0 36.9----30.23- 43.5- 40.6---
0813 2:52 pmWSW 21.0 36.9----30.24- 43.9- 40.8---
0813 2:42 pm W 13.0 28.9----30.24- 43.9- 40.6---
0813 2:32 pmWSW 15.9 35.9----30.24- 44.4- 41.0---
0813 2:22 pm W 9.9 25.1----30.24- 45.5- 41.7---
0813 2:12 pm W 9.9 26.0----30.24- 45.1- 41.5---
0813 2:02 pmWNW 11.1 19.0----30.24- 44.4- 40.5---
0813 1:52 pm W 9.9 17.1----30.24- 45.0- 40.5---

Description of Measurements

Links which are specific to this station are listed below:

Real Time Data in tabular form for the last forty-five days.

Historical Data & Climatic Summaries for quality controlled data for the current month, previous months, and previous years.